This is the latest recevied weather packets stored in our database for station/object VK2BLR. If no packets are shown the sender has not sent any weather packets the latest 10 day(s).
| Time | Temp. | Humidity | Pressure | Rain* | Wind** | Luminosity | Snow |
|---|---|---|---|---|---|---|---|
| 1787810791 | 16.67° C | 55% | 1024.4 hPa | 0 mm | - | - | - |
| 1787809890 | 16.67° C | 56% | 1024.4 hPa | 0 mm | - | - | - |
| 1787808991 | 16.67° C | 54% | 1024.3 hPa | 0 mm | - | - | - |
| 1787808092 | 17.22° C | 53% | 1024.4 hPa | 0 mm | - | - | - |
| 1787807191 | 17.22° C | 52% | 1024.8 hPa | 0 mm | - | - | - |
| 1787806292 | 17.22° C | 52% | 1024.6 hPa | 0 mm | - | - | - |
| 1787805392 | 17.78° C | 49% | 1024.6 hPa | 0 mm | - | - | - |
| 1787804491 | 17.78° C | 49% | 1024.4 hPa | 0 mm | - | - | - |
| 1787803590 | 17.78° C | 49% | 1024.2 hPa | 0 mm | - | - | - |
| 1787802692 | 17.78° C | 47% | 1024.3 hPa | 0 mm | - | - | - |
| 1787801792 | 17.78° C | 46% | 1024.5 hPa | 0 mm | - | - | - |
| 1787800891 | 17.78° C | 50% | 1024.4 hPa | 0 mm | - | - | - |
| 1787799990 | 17.78° C | 46% | 1024.5 hPa | 0 mm | - | - | - |
| 1787799092 | 18.33° C | 46% | 1024.6 hPa | 0 mm | - | - | - |
| 1787798192 | 17.78° C | 45% | 1024.8 hPa | 0 mm | - | - | - |
| 1787797291 | 17.78° C | 45% | 1024.8 hPa | 0 mm | - | - | - |
| 1787796390 | 18.33° C | 46% | 1024.9 hPa | 0 mm | - | - | - |
| 1787795492 | 18.33° C | 45% | 1025.1 hPa | 0 mm | - | - | - |
| 1787794591 | 17.78° C | 44% | 1025.3 hPa | 0 mm | - | - | - |
| 1787793691 | 18.33° C | 44% | 1025.2 hPa | 0 mm | - | - | - |
| 1787792792 | 18.33° C | 44% | 1025.2 hPa | 0 mm | - | - | - |
| 1787791891 | 17.78° C | 45% | 1025.4 hPa | 0 mm | - | - | - |
| 1787790991 | 18.33° C | 45% | 1025.6 hPa | 0 mm | - | - | - |
| 1787790091 | 18.33° C | 46% | 1025.6 hPa | 0 mm | - | - | - |
| 1787789192 | 18.33° C | 50% | 1025.6 hPa | 0 mm | - | - | - |
* Rain latest hour (hover to see other rain measurements)
** Current wind speed in m/s (hover to see current wind gust speed)